Location: *
(46.4000°N, 12.6667°E)
Time: 20:40:10
(UTC+00:00)

Envisat - Visible Passes

Search period start: 03 December 2021 00:00
Search period end: 13 December 2021 00:00
Orbit: 764 x 766 km, 98.2° (Epoch: 03 December)

Date Brightness Start Highest point End Pass type
(mag) Time Alt. Az. Time Alt. Az. Time Alt. Az.
03 Dec 5.8 02:53:04 10° NE 02:55:58 15° E 02:58:51 10° ESE visible
03 Dec 2.8 04:30:27 10° N 04:35:33 75° WNW 04:40:37 10° SSW visible
03 Dec 4.4 15:47:53 10° S 15:52:43 44° W 15:57:35 10° NNW visible
04 Dec 3.7 03:53:40 10° NNE 03:58:39 52° E 04:03:36 10° S visible
04 Dec 4.0 05:33:23 10° N 05:37:20 23° WNW 05:41:16 10° WSW visible
04 Dec 6.1 16:53:24 10° WSW 16:55:29 12° W 16:57:36 10° WNW visible
05 Dec 5.1 03:17:22 10° NE 03:21:33 25° E 03:25:43 10° SSE visible
05 Dec 3.2 04:55:56 10° N 05:00:46 45° WNW 05:05:35 10° SW visible
05 Dec 5.4 16:13:57 10° SSW 16:18:12 26° W 16:22:28 10° NW visible
06 Dec 6.0 02:42:26 10° ENE 02:44:14 12° E 02:46:04 10° ESE visible
06 Dec 2.9 04:18:53 10° NNE 04:24:00 88° ESE 04:29:05 10° SSW visible
06 Dec 4.5 05:59:32 10° NNW 06:02:19 15° WNW 06:05:05 10° W visible
07 Dec 4.2 03:42:13 10° NNE 03:47:03 42° E 03:51:50 10° SSE visible
07 Dec 3.8 05:21:35 10° N 05:25:53 28° WNW 05:30:10 10° WSW visible
07 Dec 5.9 16:40:44 10° SW 16:43:47 16° W 16:46:51 10° NW visible
08 Dec 5.4 03:06:09 10° NE 03:09:53 20° E 03:13:36 10° SE visible
08 Dec 3.0 04:44:17 10° N 04:49:15 56° WNW 04:54:13 10° SSW visible
08 Dec 5.0 16:02:00 10° SSW 16:06:33 33° W 16:11:08 10° NNW visible
09 Dec 3.2 04:07:20 10° NNE 04:12:26 71° ESE 04:17:30 10° S visible
09 Dec 4.3 05:47:32 10° NNW 05:50:54 18° WNW 05:54:16 10° W visible
10 Dec 4.6 03:30:49 10° NNE 03:35:25 33° E 03:39:59 10° SSE visible
10 Dec 3.5 05:09:51 10° N 05:14:25 34° WNW 05:18:58 10° SW visible
10 Dec 5.8 16:28:25 10° SW 16:32:05 20° W 16:35:47 10° NW visible
11 Dec 5.7 02:55:04 10° NE 02:58:12 16° E 03:01:18 10° SE visible
11 Dec 2.9 04:32:39 10° N 04:37:44 70° WNW 04:42:46 10° SSW visible
11 Dec 4.5 15:50:09 10° SSW 15:54:55 41° W 15:59:44 10° NNW visible
12 Dec 3.6 03:55:50 10° NNE 04:00:51 56° E 04:05:50 10° S visible
12 Dec 4.1 05:35:39 10° NNW 05:39:29 22° WNW 05:43:18 10° WSW visible
12 Dec 6.2 16:56:03 10° WSW 16:57:44 11° W 16:59:24 10° WNW visible
